Location: Madrid
(40.4000°N, 3.6830°W)
Time: 13:17:57
(UTC+02:00)

ISS - Pass Details

Date: 01 June 2020
Orbit: 417 x 419 km, 51.6° (Epoch: 31 May)

Event Time Altitude Azimuth Distance (km) Brightness Sun altitude
Rises 23:58:15 0° 300° (WNW) 2,365 1.1 -20.1°
Reaches altitude 10° 00:00:27 10° 291° (WNW) 1,498 -0.2 -20.4°
Enters shadow 00:03:04 33° 244° (WSW) 728 -2.6 -20.6°
